Regional Weather Roundup
Issued by NWS Sioux Falls, SD

Home | Current Version | Previous Version | Graphics & Text | Print | Product List | Glossary On
Versions: 1 2 3 4 5 6 7 8 9 10 11 12 13 14 15 16 17 18 19 20 21 22 23 24 25 26 27 28 29 30 31 32 33 34 35 36 37 38 39 40 41 42 43 44 45 46 47 48 49 50
000
ASUS43 KFSD 020502
RWRFSD

WEATHER ROUNDUP FOR SE SOUTH DAKOTA/SW MINNESOTA/NW IOWA
NATIONAL WEATHER SERVICE SIOUX FALLS SD
1200 AM CDT THU OCT 02 2014

NOTE: "FAIR" INDICATES FEW OR NO CLOUDS BELOW 12,000 FEET WITH NO
SIGNIFICANT WEATHER AND OR OBSTRUCTIONS TO VISIBILITY.


SDZ038>040-050-052>070-020600-
SOUTHEAST SOUTH DAKOTA

CITY           SKY/WX    TMP DP  RH WIND       PRES   REMARKS
CHAMBERLAIN    CLOUDY    55  47  72 N6        29.91S
HURON          CLEAR     49  45  86 NW3       29.88R
MADISON        FAIR      50  50 100 N7        29.86R
MITCHELL       CLEAR     53  47  79 NW6       29.89R
SIOUX FALLS    CLEAR     58  51  78 N12       29.84R
WINNER         LGT RAIN  54  49  83 NW6       29.93R
YANKTON        CLEAR     57  52  82 NW13      29.84R
$$

MNZ071-072-080-081-089-090-097-098-020600-
SOUTHWEST MINNESOTA

CITY           SKY/WX    TMP DP  RH WIND       PRES   REMARKS
FAIRMONT       CLOUDY    57  54  88 CALM      29.82S VSB 1/2
JACKSON        PTCLDY    54  52  94 CALM      29.83S FOG
LUVERNE        CLEAR     55  50  82 CALM      29.84R
MARSHALL       PTCLDY    54  46  76 NW8       29.83R
MONTEVIDEO     CLEAR     55  52  88 CALM      29.84S
PIPESTONE      CLEAR     57  50  77 CALM      29.84S
REDWOOD FALLS  PTCLDY    55  54  96 CALM      29.82S
TRACY          PTCLDY    57  54  88 NW7       29.84R
WINDOM         FOG       59  57  94 E3        29.83R VSB 1/4
WORTHINGTON    CLEAR     54  50  87 NW3       29.83S
$$

IAZ001>003-012>014-020>022-031-032-NEZ013-014-SDZ071-020600-
NORTHWEST IOWA

CITY           SKY/WX    TMP DP  RH WIND       PRES   REMARKS
DENISON        MOCLDY    61  61 100 CALM      29.79R FOG
ESTHERVILLE    PTCLDY    58  56  93 SE7       29.82S
LE MARS        CLOUDY    59  57  94 CALM      29.82R
ORANGE CITY    PTCLDY    64  52  63 NE5       29.82S
SHELDON        CLOUDY    55  54  94 N3        29.81S
SIOUX CITY     MOCLDY    61  59  93 CALM      29.81R
SPENCER        PTCLDY    58  56  93 E6        29.81S
STORM LAKE     MOCLDY    61  59  94 W8G15     29.82R FOG
$$

ABBREVIATIONS USED IN REMARKS
   TC - TEMPERATURE IN CELSIUS
  WCI - WIND CHILL INDEX
   HX - HEAT INDEX
  VSB - VISIBILITY




USA.gov is the U.S. government's official web portal to all federal, state and local government web resources and services.